Location: Earls Croome
(52.0667°N, 2.2000°W)
Time: 18:38:43
(UTC+00:00)

Okean 3 Rocket - Pass Details

Date: 17 November 2019
Orbit: 614 x 646 km, 82.5° (Epoch: 09 December)

Event Time Altitude Azimuth Distance (km) Brightness Sun altitude
Rises 05:05:03 0° 184° (S) 2,940 7.0 -22.2°
Reaches altitude 10° 05:07:18 10° 183° (S) 2,031 6.2 -21.9°
Maximum altitude 05:11:48 77° 99° (E) 661 3.7 -21.2°
Drops below altitude 10° 05:16:18 10° 13° (NNE) 2,029 6.3 -20.5°
Sets 05:18:32 0° 12° (NNE) 2,937 7.1 -20.1°
